Home > Weather > Wilhelmshaven > Past weeks

Flag for Germany Past Weather in Wilhelmshaven, Lower Saxony, Germany — Yesterday and Last 2 Weeks

Now
59 °F

Light rain. Passing clouds.


Feels Like: 58 °F
Forecast: 58 / 65 °F
Wind: 8 mph from Southwest

Location: Wittmundhaven

Current Time: Jun 30, 2016 at 12:03:01 AM

Latest Report: Jun 29, 2016 at 11:20 PM


Visibility: N/A

Pressure: 29.83 "Hg

Humidity: 82%

Dew Point: 54 °F

Location of WilhelmshavenLocation

Past Weather in Wilhelmshaven — Graph

°F

Wilhelmshaven Temperature Yesterday

Maximum temperature yesterday: 66 °F (at 3:20 PM)
Minimum temperature yesterday: 55 °F (at 6:20 AM)
Average temperature yesterday: 62 °F

High & Low Weather Summary for the Past Weeks

 TemperatureHumidityPressure
High79 °F (Jun 23, 11:20 AM)100% (Jun 15, 1:20 AM)30.21 "Hg (Jun 15, 1:20 AM)
Low50 °F (Jun 28, 6:20 AM)49% (Jun 28, 4:20 PM)29.45 "Hg (Jun 14, 10:20 PM)
Average61 °F82%29.92 "Hg
* Reported Jun 14 10:20 PM — Jun 29 10:20 PM, Wilhelmshaven, Weather by CustomWeather, © 2016

Note: Actual official high and low records may vary slightly from our data, if they occured in-between our weather recording intervals... More about our weather records

Advertising

Wilhelmshaven Weather History for the Previous 24 Hours

Scroll right to see more
 ConditionsComfort  
Time TempWeatherWind HumidityBarometerVisibility
10:20 PM
Wed, Jun 29
63 °FLight rain. Partly sunny.8 mph64%29.83 "HgN/A
9:20 PM63 °FPartly sunny.5 mph68%29.83 "HgN/A
8:20 PM64 °FScattered clouds.8 mph60%29.83 "HgN/A
7:20 PM66 °FScattered clouds.13 mph52%29.83 "HgN/A
6:20 PM66 °FScattered clouds.13 mph56%29.83 "HgN/A
5:20 PM66 °FScattered clouds.16 mph60%29.83 "HgN/A
3:20 PM66 °FScattered clouds.15 mph64%29.80 "HgN/A
2:20 PM63 °FBroken clouds.10 mph73%29.80 "HgN/A
1:20 PM64 °FScattered clouds.12 mph73%29.77 "HgN/A
12:20 PM64 °FScattered clouds.16 mph64%29.77 "HgN/A
11:20 AM63 °FBroken clouds.14 mph68%29.77 "HgN/A
10:20 AM63 °FScattered clouds.15 mph73%29.77 "HgN/A
9:20 AM61 °FScattered clouds.13 mph83%29.77 "HgN/A
8:20 AM61 °FScattered clouds.8 mph83%29.74 "HgN/A
7:20 AM57 °FScattered clouds.3 mph94%29.74 "HgN/A
6:20 AM55 °FPartly sunny.5 mph94%29.74 "HgN/A
5:20 AM57 °FPassing clouds.2 mph88%29.74 "HgN/A
4:20 AM57 °FPassing clouds.3 mph88%29.74 "HgN/A
3:20 AM57 °FPartly cloudy.6 mph88%29.77 "HgN/A
2:20 AM57 °FPartly cloudy.7 mph88%29.80 "HgN/A
1:20 AM61 °FPartly cloudy.9 mph68%29.80 "HgN/A
12:20 AM61 °FPassing clouds.10 mph68%29.83 "HgN/A
Weather by CustomWeather, © 2016

See weather overviewHow to use our weather pages